User: anonymous   Login
Location: Newark
(35.2161°N, 26.1013°E)
Time: 23:07:41
(UTC+00:00)
Language:

XW-2B - Orbit

View from above orbital plane
View from above orbital plane
View from above satellite
View from above satellite

Ground track
Ground track

The orbit data is extracted from the following two-line orbital elements,

1 40911U 15049N   20028.77825951  .00000360  00000-0  22142-4 0  9994
2 40911  97.4731  32.6168 0015135 135.2214 311.2581 15.16046220240854
Epoch (UTC): 28 January 2020 18:40:41
Eccentricity: 0.0015135
inclination: 97.4731°
perigee height: 507 km
apogee height: 528 km
right ascension of ascending node: 32.6168°
argument of perigee: 135.2214°
revolutions per day: 15.16046220
mean anomaly at epoch: 311.2581°
orbit number at epoch: 24085

The dashed part of the orbit path shows where the satellite is in the earth's shadow,  

DLR